Theta_e
309 309 309 309 309 309 309 309 310 310 310 310 311 311 312 312 312 313 314 313 313 313 313 313 312 313 315 317 316 314 318 319 318 318 319 318 318 316 316 317 316 315 316 315 314
309 309 309 309 309 309 309 309 309 310 310 311 311 311 312 312 313 313 313 313 313 313 313 314 315 315 317 318 318 318 319 318 316 317 318 318 318 318 317 317 317 315 314 313 313
309 309 309 309 308 309 309 309 309 310 310 311 311 312 312 312 314 314 313 312 312 312 312 312 314 315 316 317 318 318 318 316 315 316 317 318 317 317 317 318 317 317 315 312 312
308 308 308 308 308 308 309 309 309 310 310 311 311 311 312 312 317 313 312 312 312 311 312 312 315 316 316 317 317 318 317 316 316 315 316 317 317 317 316 316 313 312 312 311 311
308 308 308 308 308 309 309 309 310 310 310 311 311 311 311 317 317 314 313 312 312 312 313 315 315 316 317 316 316 317 317 316 316 316 316 316 316 317 316 313 311 311 311 310 310
310 309 309 309 309 309 310 310 310 310 310 310 310 311 314 317 316 315 316 316 313 312 313 314 315 315 315 316 316 316 316 316 316 315 315 315 316 314 314 311 310 310 309 309 309
315 313 312 311 311 311 311 311 310 310 310 311 313 315 317 317 316 317 317 317 317 316 314 314 314 313 315 316 315 315 316 318 318 317 316 314 316 315 313 311 311 310 309 308 308
316 316 315 315 315 315 314 314 314 315 315 316 316 316 318 318 318 318 318 318 317 316 314 313 313 314 315 314 315 317 318 320 319 316 315 315 321 317 312 311 312 311 309 307 307
324 321 317 316 315 315 314 314 314 314 314 314 315 315 318 318 317 317 317 317 316 315 313 312 313 315 314 316 319 318 320 321 321 316 316 316 321 314 311 312 313 312 310 308 306
324 323 323 320 316 315 315 314 314 314 314 314 315 316 316 316 315 316 316 316 314 312 313 313 314 317 316 318 320 321 321 320 320 318 315 317 318 315 312 311 312 312 309 308 306
324 323 323 323 322 318 316 315 318 320 315 318 319 318 315 315 315 314 315 314 314 315 317 315 317 319 319 318 319 320 320 320 320 318 316 318 319 319 313 312 313 311 309 307 305
323 322 323 324 324 323 319 318 317 315 317 317 316 317 317 315 313 313 315 314 314 317 316 315 317 318 319 318 318 319 319 319 320 318 314 317 318 319 317 313 312 311 309 307 303
323 322 322 322 323 323 323 321 317 315 318 318 317 317 317 315 315 314 314 314 315 317 317 319 319 317 318 316 317 317 318 319 319 318 315 316 318 319 318 312 309 308 307 305 303
318 320 321 323 321 321 322 323 320 317 323 323 318 318 316 316 316 316 314 314 314 317 317 317 318 315 316 316 315 318 318 316 317 317 319 318 322 322 320 311 308 306 305 304 302
310 316 318 321 323 322 322 322 322 318 327 322 318 314 313 316 314 312 312 312 316 314 315 317 314 315 316 316 315 317 315 315 316 317 319 320 320 320 317 313 311 307 304 303 301
308 309 312 321 322 323 322 321 320 321 324 323 315 316 315 315 312 309 310 310 312 315 315 315 312 314 315 313 314 313 314 314 314 317 322 320 321 322 319 316 313 307 304 302 300
307 308 309 318 321 322 322 320 321 319 320 322 319 316 318 318 315 313 312 313 316 316 317 316 315 313 313 314 312 314 316 321 323 320 322 317 322 322 318 312 312 307 304 301 299
306 309 311 312 320 321 320 319 318 321 321 315 316 315 320 319 316 314 315 316 315 317 320 322 322 316 313 317 318 315 317 323 328 325 323 312 318 320 309 309 309 306 303 301 298
313 314 316 314 318 319 319 321 319 320 320 317 315 319 320 317 317 316 316 318 318 316 319 322 323 315 315 315 317 316 318 318 318 311 318 319 316 311 307 307 307 305 302 300 297
313 314 313 314 314 318 319 320 318 319 318 316 320 319 323 320 317 316 318 318 319 317 316 321 323 314 313 311 313 316 315 316 318 324 325 323 321 320 310 308 306 305 302 300 297
314 314 314 313 314 316 318 318 318 317 317 315 319 321 321 322 317 317 320 319 317 317 315 318 319 314 310 313 316 313 315 316 318 319 324 324 321 316 316 310 307 305 303 300 297
314 313 313 314 314 316 316 315 315 317 317 316 316 319 321 320 317 318 320 320 314 314 315 317 318 323 315 312 312 315 316 316 319 319 317 319 321 309 311 311 307 305 303 300 298
311 313 312 315 316 316 316 316 316 316 317 317 317 317 318 317 316 316 317 316 311 313 316 316 314 322 319 313 309 311 313 315 315 318 321 322 321 307 307 309 308 306 303 301 298
308 312 311 311 314 315 316 315 316 315 316 316 317 316 317 318 316 317 316 316 310 312 313 314 314 320 325 320 315 313 313 312 315 318 319 319 319 309 309 308 307 306 304 302 299
307 309 309 311 311 312 313 312 315 316 315 316 317 317 317 317 317 317 317 312 308 308 310 313 313 314 317 316 311 314 315 313 313 315 318 318 317 316 311 309 307 306 304 302 299
305 306 306 306 307 311 312 312 312 314 314 314 316 315 315 316 317 317 316 314 313 307 309 309 314 314 316 316 313 311 311 314 313 313 314 315 317 311 312 309 308 306 304 303 301
301 303 303 306 307 308 309 311 311 311 310 309 311 314 314 312 309 307 306 306 307 307 309 308 310 312 317 312 308 311 311 312 313 312 313 314 314 308 307 308 308 307 305 303 302
Wind_Speed
4 3 3 3 3 4 4 5 5 5 5 5 7 8 8 9 9 9 6 6 6 6 5 4 3 2 1 1 0 0 4 5 3 5 5 6 7 5 2 3 2 1 1 3 6
7 6 6 6 5 5 6 6 7 7 7 8 8 9 10 11 12 11 9 7 6 4 3 3 3 3 2 1 1 4 4 1 1 2 4 7 5 5 5 8 7 3 2 5 7
9 8 8 8 7 8 7 7 8 9 8 9 10 10 11 12 11 3 2 3 4 5 4 5 5 2 3 2 3 1 5 3 4 3 2 5 6 5 7 9 4 5 2 4 2
10 10 10 10 9 9 9 9 9 9 9 10 11 11 11 9 5 2 1 2 4 4 5 4 3 3 4 5 3 6 4 3 2 3 3 6 4 6 8 1 3 3 3 2 1
11 11 12 11 11 11 11 11 11 11 11 11 11 11 10 5 7 9 7 5 6 5 5 3 5 4 7 3 4 7 3 4 5 5 7 5 10 10 8 4 5 5 4 2 2
12 12 12 12 13 13 13 13 13 13 12 12 11 11 8 11 10 10 9 10 10 8 8 6 4 5 4 4 6 3 4 7 7 11 9 8 12 3 7 7 6 5 4 4 2
11 12 12 12 13 14 14 15 14 13 13 13 12 11 11 15 11 9 10 10 11 11 6 8 5 5 3 3 3 4 7 10 14 15 9 10 10 12 9 10 8 7 4 3 2
11 11 11 11 12 13 14 14 15 15 14 14 12 10 9 14 15 17 17 13 11 11 11 10 9 5 3 2 2 5 5 9 6 8 5 10 11 10 12 12 10 8 5 3 2
12 12 12 12 12 12 13 14 14 15 15 13 10 7 9 13 15 18 16 13 12 11 10 9 8 5 5 6 7 9 11 10 6 12 6 12 6 10 12 13 13 10 8 6 3
15 14 15 13 12 13 12 13 14 15 14 12 12 5 15 7 9 12 16 13 7 9 6 7 7 8 9 10 11 11 14 11 12 7 10 11 15 10 12 16 17 14 11 8 6
15 15 15 16 15 13 12 9 7 6 10 11 5 5 3 10 8 9 15 14 8 10 10 12 10 15 20 18 19 13 13 15 11 3 6 14 16 14 17 15 17 16 13 11 8
19 16 16 14 17 17 12 5 7 5 11 16 21 18 17 8 5 12 17 12 11 12 15 5 17 19 15 11 16 17 16 16 14 6 5 15 19 17 15 20 20 17 15 13 10
20 19 16 15 17 18 17 15 12 8 9 14 20 18 21 27 15 16 24 13 11 14 16 19 8 9 16 11 12 16 18 15 17 4 11 14 22 23 21 14 11 13 14 13 14
20 19 16 15 17 19 19 14 15 3 6 9 9 7 15 11 13 23 26 12 10 15 16 18 22 9 12 15 13 17 16 16 15 8 10 3 12 10 12 14 15 17 17 16 15
21 21 19 21 19 14 11 10 14 9 5 2 6 3 8 18 3 7 22 13 17 10 8 7 8 14 16 16 15 10 2 8 11 13 16 19 9 7 4 13 19 21 20 19 18
24 23 21 22 29 24 16 10 5 3 8 4 5 6 6 16 2 3 10 10 6 16 17 16 4 9 9 2 12 10 7 3 3 7 12 16 16 13 11 11 14 21 24 24 22
23 25 26 28 26 25 22 16 5 5 3 7 5 7 14 11 9 8 13 14 13 9 20 18 18 6 6 7 3 13 8 4 5 6 9 2 13 16 6 5 11 23 28 28 27
24 25 30 30 29 26 23 5 8 10 16 4 4 7 10 9 8 10 9 15 22 18 11 15 10 24 17 24 14 20 18 8 6 7 5 1 9 6 5 6 8 23 28 28 27
12 19 26 30 28 28 17 10 5 9 7 7 6 8 10 9 6 12 15 15 15 24 13 11 13 4 10 16 21 12 16 9 2 1 4 7 11 3 6 7 14 25 29 30 29
17 21 29 31 29 27 11 16 8 13 1 10 15 14 14 14 12 12 11 10 20 19 23 6 9 4 6 4 11 11 11 6 4 6 7 8 12 9 10 14 15 22 30 32 31
19 9 10 27 25 16 11 11 8 19 13 9 13 15 17 11 16 10 9 9 14 8 20 11 8 3 6 14 17 8 13 9 6 8 3 4 5 4 10 18 21 22 32 35 35
14 7 11 22 16 7 16 14 4 8 23 8 4 10 15 16 12 11 14 16 11 11 12 19 4 10 13 2 11 21 14 20 6 6 6 3 7 4 4 12 21 24 29 31 33
9 12 16 28 10 15 17 15 22 11 8 8 11 10 10 7 6 10 12 8 15 13 13 11 5 3 2 5 4 9 18 17 18 1 12 6 6 1 3 7 18 22 28 31 32
7 4 12 15 15 19 16 18 20 18 19 17 7 12 12 14 12 6 11 8 14 18 20 17 5 7 13 2 7 9 17 21 18 9 20 17 12 4 7 10 16 21 26 31 35
8 5 3 4 17 14 10 2 7 6 17 22 7 19 13 8 16 17 22 6 4 8 7 12 8 12 23 6 3 5 12 21 24 30 15 26 20 12 13 14 21 22 23 30 35
4 3 7 5 3 9 19 17 18 8 4 5 9 7 17 20 14 8 16 10 8 7 9 5 7 10 18 17 10 8 13 16 26 28 27 27 19 3 17 16 18 23 26 32 36
14 12 3 4 5 4 4 10 8 11 5 7 10 11 14 10 6 7 3 5 1 7 13 9 8 7 8 5 3 6 25 18 21 25 19 24 21 5 3 7 13 20 26 34 38
Wind_Direction
229 230 241 232 259 277 286 292 296 300 302 308 312 316 318 316 313 310 302 271 258 253 244 242 228 244 83 22 106 176 244 226 199 201 209 165 194 173 200 232 166 145 122 221 257
242 244 247 258 254 260 276 285 291 297 306 310 314 318 322 322 319 309 288 264 250 233 204 192 212 191 197 178 230 256 258 221 360 201 218 174 220 180 219 204 194 166 212 252 259
258 257 256 256 262 268 267 273 284 294 300 304 309 315 320 327 327 265 282 235 195 168 157 167 174 187 220 212 205 217 269 105 185 197 235 204 222 220 245 244 285 233 175 311 273
265 266 267 268 269 270 274 277 283 288 293 299 305 310 316 328 318 311 275 198 177 165 148 158 202 239 261 238 202 250 241 236 181 207 207 225 254 236 238 249 166 212 235 251 164
266 270 274 273 274 277 277 279 281 286 290 294 300 307 316 291 264 276 257 233 219 204 190 215 242 257 255 256 231 242 221 220 215 209 225 258 247 258 226 201 215 231 224 177 163
262 266 270 276 278 278 279 280 281 283 286 290 295 300 302 265 261 266 252 240 234 229 235 226 259 240 282 251 250 2 272 251 228 229 232 231 248 217 200 191 186 168 152 164 182
266 265 266 272 275 278 281 282 281 282 286 288 291 294 279 261 258 257 247 236 231 226 229 223 221 208 200 228 233 275 277 257 241 233 235 216 239 229 162 167 170 172 169 180 214
264 267 269 270 275 276 278 280 282 282 282 283 286 289 261 257 255 248 240 234 228 227 224 225 210 194 236 158 212 254 255 262 106 172 190 195 263 155 176 181 191 191 192 187 248
264 266 267 271 274 278 283 285 283 282 281 281 283 266 263 257 244 238 226 224 223 223 218 207 181 209 171 224 247 214 263 232 256 199 156 203 249 163 184 198 206 208 207 202 195
263 271 272 271 274 279 282 288 290 286 273 275 254 261 243 247 240 224 218 210 183 175 159 183 200 221 222 211 235 249 226 252 251 174 217 212 249 164 195 210 216 211 208 204 198
255 264 281 273 276 275 285 300 311 275 237 215 207 212 265 231 217 208 197 182 163 192 207 203 216 219 225 224 251 281 283 263 257 154 259 240 252 249 198 211 217 214 210 205 195
257 259 267 273 268 274 272 249 258 282 292 259 245 241 241 236 203 207 182 180 194 209 206 183 229 238 243 270 239 247 259 258 260 233 243 265 263 256 218 218 221 220 214 203 188
257 255 255 259 276 259 260 258 263 292 266 261 234 230 226 228 222 209 185 194 213 219 201 225 232 220 223 229 226 236 243 254 260 266 243 274 269 255 239 214 221 223 212 198 188
250 248 248 248 245 249 255 265 239 230 275 251 205 228 206 189 232 225 206 188 206 225 211 248 249 207 204 227 216 246 236 248 262 258 262 171 286 281 199 210 216 208 197 189 180
253 245 238 235 239 233 256 293 237 181 252 355 125 185 165 185 90 180 197 215 227 197 180 224 190 200 218 218 201 249 85 220 238 255 274 256 264 276 170 215 211 201 193 186 180
252 242 236 239 239 243 247 241 185 179 238 202 138 166 158 200 171 110 182 209 237 244 226 266 5 222 224 125 196 129 111 110 235 260 256 240 234 265 205 230 200 190 188 177 171
255 241 229 227 237 239 230 213 194 197 202 177 184 187 203 186 203 194 185 196 199 197 231 231 228 195 181 145 152 199 179 232 238 209 255 235 221 251 180 185 190 182 183 178 171
251 239 229 226 238 244 231 220 231 212 219 99 159 170 196 182 220 200 196 219 218 228 280 218 232 201 195 215 201 201 196 198 237 215 249 67 232 235 42 105 176 180 180 177 173
255 239 232 229 230 232 201 233 225 228 184 178 151 198 200 207 251 202 224 227 221 214 214 214 239 259 182 218 212 190 222 231 18 180 283 219 241 197 164 168 168 170 175 180 177
232 237 240 228 218 228 208 240 224 222 220 184 219 201 212 199 187 194 204 222 227 214 219 265 266 177 166 184 239 208 156 166 196 215 233 244 251 232 204 192 180 179 182 181 180
221 233 247 224 205 214 232 231 234 229 208 216 235 246 236 218 206 191 238 238 204 216 197 230 243 132 153 205 187 179 202 217 207 227 248 273 239 141 204 190 187 187 186 183 181
215 223 216 191 194 216 230 238 188 203 222 212 238 259 246 219 213 211 225 231 171 148 191 212 223 226 212 118 248 219 209 205 206 188 231 288 257 122 97 178 186 189 186 186 185
226 223 203 196 215 218 232 245 231 219 202 185 208 207 212 220 214 216 225 255 169 173 185 168 202 182 237 229 211 225 219 222 227 326 224 200 247 93 143 173 183 185 186 187 185
226 224 210 219 232 223 229 230 238 225 226 213 212 210 226 232 206 213 234 221 198 198 169 165 186 225 227 157 147 202 207 209 214 225 238 234 245 195 207 183 178 185 186 186 187
220 217 222 220 237 248 234 141 223 215 215 203 209 204 202 220 232 228 233 185 197 208 172 176 220 210 246 252 80 277 228 208 210 226 216 247 235 224 203 195 192 184 183 187 191
229 229 217 293 230 240 222 240 229 219 168 260 225 181 234 237 224 210 221 206 202 174 182 191 226 218 244 245 227 233 247 230 221 230 233 244 248 54 187 189 174 181 186 193 196
230 233 233 216 224 208 225 226 227 222 231 256 274 242 226 241 216 169 94 11 82 178 191 180 205 186 239 210 149 251 229 228 230 227 233 235 242 119 119 174 199 189 194 200 203